Prairie Du Chien, WI

2:09 AM CDT on October 01, 2016 (GMT -0500)
Prairie Du Chien Municipal

Weather History for KPDC - November, 2013

Change the Weather History Date:

Sunday, November 24, 2013

  Actual Average Record
Temperature  
Mean Temperature 17 °F -  
Max Temperature 27 °F 41 °F 63 °F (1988)
Min Temperature 7 °F 23 °F -5 °F (1950)
Degree Days  
Heating Degree Days 48    
Moisture  
Dew Point 4 °F    
Average Humidity 57    
Maximum Humidity 84    
Minimum Humidity 31    
Precipitation  
Precipitation 0.00 in - - ()
Sea Level Pressure  
Sea Level Pressure 30.53 in    
Wind  
Wind Speed 4 mph (South)    
Max Wind Speed 16 mph    
Max Gust Speed 23 mph    
Visibility 10 miles    
Events      
Averages and records for this station are not official NWS values.
T = Trace of Precipitation, MM = Missing Value Source: NWS Daily Summary

Daily Weather History Graph

Daily Weather History Graph

Search for Another Location

Airport or City:

Trip Planner

Search our weather history database for the weather conditions in past years. The results will help you decide how hot, cold, wet, or windy it might be!

Date:

Astronomy

Nov. 24, 2013 Rise Set
Actual Time 7:08 AM CST 4:33 PM CST
Civil Twilight 6:37 AM CST 5:05 PM CST
Nautical Twilight 6:02 AM CST 5:40 PM CST
Astronomical Twilight 5:28 AM CST 6:14 PM CST
Moon 11:05 PM CST (11/24) 11:51 AM CST (11/24)
Length of Visible Light 10h 28m
Length of Day
9h 25m
Waning Gibbous, 60% of the Moon is Illuminated
Nov 24
Waning Gibbous
Nov 25
Last Quarter
Dec 2
New
Dec 9
First Quarter
Dec 17
Full

Hourly Weather History & Observations

Time (CST) Temp. Windchill Dew Point Humidity Pressure Visibility Wind Dir Wind Speed Gust Speed Precip Events Conditions
12:15 AM 9.9 °F - 3.9 °F 77% 30.73 in 10.0 mi Calm Calm - N/A   Clear
12:35 AM 9.9 °F - 3.9 °F 77% 30.72 in 10.0 mi Calm Calm - N/A   Clear
12:55 AM 9.7 °F - 3.6 °F 76% 30.73 in 10.0 mi Calm Calm - N/A   Clear
1:15 AM 9.3 °F - 3.6 °F 77% 30.73 in 10.0 mi Calm Calm - N/A   Clear
1:35 AM 9.7 °F - 3.0 °F 74% 30.72 in 10.0 mi Calm Calm - N/A   Clear
1:55 AM 9.5 °F - 3.9 °F 78% 30.73 in 10.0 mi Calm Calm - N/A   Clear
2:15 AM 9.5 °F - 3.0 °F 75% 30.73 in 10.0 mi Calm Calm - N/A   Clear
2:35 AM 9.5 °F - 3.0 °F 75% 30.73 in 10.0 mi Calm Calm - N/A   Clear
2:55 AM 9.1 °F - 2.7 °F 75% 30.73 in 10.0 mi Calm Calm - N/A   Clear
3:15 AM 8.6 °F - 3.4 °F 79% 30.71 in 10.0 mi Calm Calm - N/A   Clear
3:35 AM 9.3 °F - 3.2 °F 76% 30.71 in 10.0 mi Calm Calm - N/A   Clear
3:55 AM 8.1 °F - 3.2 °F 81% 30.69 in 10.0 mi Calm Calm - N/A   Clear
4:15 AM 8.6 °F - 3.0 °F 78% 30.69 in 10.0 mi Calm Calm - N/A   Clear
4:35 AM 8.6 °F - 3.6 °F 80% 30.69 in 10.0 mi Calm Calm - N/A   Clear
4:55 AM 8.6 °F - 3.6 °F 80% 30.70 in 10.0 mi Calm Calm - N/A   Clear
5:15 AM 8.8 °F - 3.6 °F 79% 30.69 in 10.0 mi Calm Calm - N/A   Clear
5:35 AM 8.6 °F - 3.2 °F 79% 30.70 in 10.0 mi Calm Calm - N/A   Clear
5:55 AM 9.0 °F - 3.0 °F 77% 30.71 in 10.0 mi Calm Calm - N/A   Clear
6:15 AM 8.6 °F - 3.2 °F 79% 30.70 in 10.0 mi Calm Calm - N/A   Clear
6:35 AM 8.6 °F - 2.7 °F 77% 30.70 in 10.0 mi Calm Calm - N/A   Clear
6:55 AM 8.2 °F - 3.7 °F 82% 30.70 in 10.0 mi Calm Calm - N/A   Clear
7:15 AM 7.5 °F - 3.6 °F 84% 30.69 in 10.0 mi Calm Calm - N/A   Clear
7:35 AM 7.7 °F - 3.7 °F 84% 30.69 in 10.0 mi Calm Calm - N/A   Clear
7:55 AM 9.0 °F - 4.6 °F 83% 30.69 in 10.0 mi Calm Calm - N/A   Clear
8:15 AM 10.2 °F - 5.9 °F 83% 30.68 in 10.0 mi Calm Calm - N/A   Clear
8:35 AM 11.7 °F - 6.3 °F 79% 30.68 in 10.0 mi Calm Calm - N/A   Clear
8:55 AM 12.9 °F 5.2 °F 6.8 °F 77% 30.68 in 10.0 mi South 4.6 mph - N/A   Clear
9:15 AM 14.0 °F 6.5 °F 6.3 °F 71% 30.68 in 10.0 mi South 4.6 mph - N/A   Clear
9:35 AM 15.6 °F 7.0 °F 7.0 °F 69% 30.67 in 10.0 mi South 5.8 mph - N/A   Clear
9:55 AM 16.7 °F 7.2 °F 6.3 °F 64% 30.66 in 10.0 mi South 6.9 mph - N/A   Clear
10:15 AM 18.5 °F 9.3 °F 6.4 °F 59% 30.65 in 10.0 mi South 6.9 mph - N/A   Clear
10:35 AM 19.9 °F 12.1 °F 5.4 °F 53% 30.64 in 10.0 mi South 5.8 mph - N/A   Clear
10:55 AM 20.1 °F 9.5 °F 4.8 °F 52% 30.62 in 10.0 mi South 9.2 mph - N/A   Clear
11:15 AM 20.7 °F 9.5 °F 4.5 °F 50% 30.60 in 10.0 mi South 10.4 mph - N/A   Clear
11:35 AM 22.3 °F 12.2 °F 3.2 °F 44% 30.58 in 10.0 mi South 9.2 mph - N/A   Clear
11:55 AM 23.2 °F 14.1 °F 3.0 °F 42% 30.57 in 10.0 mi SSW 8.1 mph - N/A   Clear
12:15 PM 24.4 °F 12.4 °F 2.1 °F 38% 30.55 in 10.0 mi SSW 13.8 mph 17.3 mph N/A   Clear
12:35 PM 25.3 °F 15.3 °F 1.9 °F 37% 30.53 in 10.0 mi SSW 10.4 mph 16.1 mph N/A   Clear
12:55 PM 25.7 °F 13.1 °F -0.0 °F 33% 30.51 in 10.0 mi SSW 16.1 mph 19.6 mph N/A   Clear
1:15 PM 26.2 °F 13.8 °F -0.9 °F 31% 30.50 in 10.0 mi SW 16.1 mph 23.0 mph N/A   Clear
1:35 PM 27.1 °F 18.9 °F 0.3 °F 32% 30.49 in 10.0 mi SSW 8.1 mph 18.4 mph N/A   Clear
1:55 PM 27.1 °F 16.9 °F 0.3 °F 32% 30.47 in 10.0 mi SSW 11.5 mph 17.3 mph N/A   Clear
2:15 PM 27.5 °F 18.0 °F 0.7 °F 32% 30.46 in 10.0 mi SSW 10.4 mph 17.3 mph N/A   Clear
2:35 PM 27.5 °F 17.4 °F 1.2 °F 32% 30.46 in 10.0 mi SSW 11.5 mph 17.3 mph N/A   Clear
2:55 PM 27.5 °F 18.6 °F 1.2 °F 32% 30.44 in 10.0 mi SSW 9.2 mph - N/A   Clear
3:15 PM 27.5 °F 16.8 °F 1.0 °F 32% 30.43 in 10.0 mi SSW 12.7 mph 16.1 mph N/A   Clear
3:35 PM 27.5 °F 16.3 °F 1.2 °F 32% 30.42 in 10.0 mi South 13.8 mph - N/A   Clear
3:55 PM 27.1 °F 18.9 °F 1.9 °F 34% 30.41 in 10.0 mi South 8.1 mph - N/A   Clear
4:15 PM 26.6 °F 17.5 °F 1.2 °F 34% 30.41 in 10.0 mi SSW 9.2 mph 19.6 mph N/A   Clear
4:35 PM 26.1 °F 17.6 °F 2.7 °F 37% 30.40 in 10.0 mi South 8.1 mph - N/A   Clear
4:55 PM 26.2 °F 19.6 °F 3.0 °F 37% 30.39 in 10.0 mi South 5.8 mph - N/A   Clear
5:15 PM 25.9 °F 16.0 °F 3.0 °F 38% 30.39 in 10.0 mi South 10.4 mph 16.1 mph N/A   Clear
5:35 PM 25.7 °F 18.0 °F 3.6 °F 39% 30.38 in 10.0 mi South 6.9 mph - N/A   Clear
5:55 PM 25.5 °F 17.8 °F 4.1 °F 40% 30.38 in 10.0 mi South 6.9 mph - N/A   Clear
6:15 PM 25.2 °F 16.5 °F 4.5 °F 41% 30.37 in 10.0 mi South 8.1 mph - N/A   Clear
6:35 PM 25.3 °F 19.7 °F 4.6 °F 41% 30.36 in 10.0 mi South 4.6 mph - N/A   Clear
6:55 PM 25.2 °F 15.7 °F 5.5 °F 43% 30.35 in 10.0 mi South 9.2 mph - N/A   Clear
7:15 PM 24.8 °F 16.9 °F 6.1 °F 45% 30.34 in 10.0 mi South 6.9 mph - N/A   Clear
7:35 PM 25.0 °F 19.3 °F 6.4 °F 45% 30.34 in 10.0 mi South 4.6 mph 16.1 mph N/A   Clear
7:55 PM 25.0 °F 14.8 °F 6.6 °F 46% 30.33 in 10.0 mi South 10.4 mph 18.4 mph N/A   Clear
8:15 PM 25.0 °F 16.3 °F 6.4 °F 45% 30.32 in 10.0 mi South 8.1 mph 20.7 mph N/A   Clear
8:35 PM 24.8 °F 14.6 °F 6.8 °F 46% 30.31 in 10.0 mi SSW 10.4 mph 16.1 mph N/A   Clear
8:55 PM 24.8 °F 16.1 °F 6.6 °F 46% 30.31 in 10.0 mi South 8.1 mph - N/A   Clear
9:15 PM 24.6 °F 12.2 °F 6.8 °F 47% 30.31 in 10.0 mi South 15.0 mph 18.4 mph N/A   Clear
9:35 PM 24.4 °F 14.2 °F 7.0 °F 48% 30.30 in 10.0 mi South 10.4 mph 18.4 mph N/A   Clear
9:55 PM 24.1 °F 13.7 °F 7.2 °F 49% 30.29 in 10.0 mi South 10.4 mph - N/A   Clear
10:15 PM 24.3 °F 13.3 °F 7.3 °F 49% 30.29 in 10.0 mi South 11.5 mph 17.3 mph N/A   Clear
10:35 PM 23.9 °F 15.8 °F 7.5 °F 50% 30.28 in 10.0 mi SSW 6.9 mph - N/A   Clear
10:55 PM 23.9 °F 12.9 °F 7.7 °F 50% 30.27 in 10.0 mi SSW 11.5 mph 18.4 mph N/A   Clear
11:15 PM 23.9 °F 12.9 °F 7.7 °F 50% 30.26 in 10.0 mi South 11.5 mph 16.1 mph N/A   Clear
11:35 PM 23.9 °F 14.2 °F 7.3 °F 49% 30.26 in 10.0 mi South 9.2 mph 17.3 mph N/A   Clear
11:55 PM 24.4 °F 15.6 °F 7.3 °F 48% 30.25 in 10.0 mi South 8.1 mph 20.7 mph N/A   Scattered Clouds